(118026) = 1978 NH6 = 2151 T-2

Discovered at Palomar on 1973-09-29 by C. J. van Houten, I. van Houten-Groeneveld, and T. Gehrels.

Orbit

Orbit type: Main Belt

Note: WebGL enabled browser required.

epoch2024-03-31.0
epoch JD2460400.5
perihelion date2022-04-05.63294
perihelion JD2459675.13294
argument of perihelion (°)39.88512
ascending node (°)352.38343
inclination (°)3.89850
eccentricity0.3382228
perihelion distance (AU)2.0282194
Tisserand w.r.t. Jupiter3.1
ΔV w.r.t. Earth (km/sec)9.2
semimajor axis (AU)3.0648070
mean anomaly (°)133.24686
mean daily motion (°/day)0.18369580
aphelion distance (AU)4.101
period (years)5.37
P-vector [x]0.84535833
P-vector [y]0.47114128
P-vector [z]0.25178402
Q-vector [x]-0.53412367
Q-vector [y]0.75341474
Q-vector [z]0.38350768
absolute magnitude14.4
phase slope0.15
uncertainty0
referenceMPEC 2024-E23
observations used1545
oppositions19
arc length (days)18427
first opposition used1973
last opposition used2024
residual rms (arc-secs)0.63
perturbers coarse indicatorM-v
perturbers precise indicator003Ek
first observation date used1973-09-19.0
last observation date used2024-03-02.0
computer nameMPCLINUX
JD of orbit computation2456819.685717
perihelion JD uncertainty (days)4.7515E-05
argument of perihelion uncertainty (°)6.2208E-05
ascending node uncertainty (°)6.1537E-05
inclination uncertainty (°)5.6848E-06
eccentricity uncertainty 4.1442E-08
perihelion distance uncertainty (AU)1.2687E-07
Minimum Orbit Intersection Distances (in AU)
for orbit epoch: 2460400.5, reference: E2024-G95
Mercury1.70117
Venus1.30814
Earth1.03611
Mars0.58634
Jupiter1.37188
Saturn5.66536
Uranus14.5172
Neptune26.5737

Observations

1578 total observations over interval: 1973 09 19.19948 – 2024 03 02.565389
These data are available for download (format description).

Date (UT) J2000 RA J2000 Dec Magn Location Ref
1973 09 19.19948 00 40 32.19 +05 47 48.4   675 – Palomar Mountain MPC 15007
1973 09 19.25006 00 40 30.17 +05 47 46.4   675 – Palomar Mountain MPC 15007
1973 09 20.26458 00 39 49.30 +05 46 46.9   675 – Palomar Mountain MPC 15007
1973 09 24.36181 00 36 55.16 +05 41 51.7   675 – Palomar Mountain MPC 15007
1973 09 24.42847 00 36 51.97 +05 41 45.8   675 – Palomar Mountain MPC 15008
1973 09 25.25642 00 36 15.91 +05 40 33.7   675 – Palomar Mountain MPC 15008
1973 09 25.32031 00 36 12.90 +05 40 29.1   675 – Palomar Mountain MPC 15008
1973 09 29.26632 00 33 13.16 +05 34 11.8   675 – Palomar Mountain MPC 15008
1973 09 29.33073 00 33 10.01 +05 34 06.6 17.1   675 – Palomar Mountain MPC 15008
1973 09 30.22257 00 32 28.89 +05 32 29.6   675 – Palomar Mountain MPC 15008
1973 09 30.28785 00 32 25.61 +05 32 22.9   675 – Palomar Mountain MPC 15008
1973 10 04.30208 00 29 18.12 +05 24 59.7   675 – Palomar Mountain MPC 15008
1973 10 04.36476 00 29 14.97 +05 24 53.2   675 – Palomar Mountain MPC 15008
1973 10 05.32917 00 28 30.18 +05 23 02.4   675 – Palomar Mountain MPC 15008
1973 10 05.39132 00 28 27.22 +05 22 55.7   675 – Palomar Mountain MPC 15008
1978 07 10.3431 20 51 04.7 -22 48 43 19   675 – Palomar Mountain MPC 9407
1978 07 11.4247 20 50 20.0 -22 51 46   675 – Palomar Mountain MPC 9407
1978 07 13.3825 20 48 55.1 -22 57 16   675 – Palomar Mountain MPC 9407
2000 07 07.41029 00 36 26.76 +03 02 41.9 19.7   704 – Lincoln Laboratory ETS, New Mexico MPS 20332
2000 07 07.42244 00 36 27.61 +03 02 48.6 19.4   704 – Lincoln Laboratory ETS, New Mexico MPS 20332
2000 07 07.43474 00 36 28.45 +03 02 55.8 19.1   704 – Lincoln Laboratory ETS, New Mexico MPS 20332
2000 07 31.37016 01 00 38.92 +06 15 48.3 18.8   704 – Lincoln Laboratory ETS, New Mexico MPS 20332
2000 07 31.38220 01 00 39.44 +06 15 54.9 19.1   704 – Lincoln Laboratory ETS, New Mexico MPS 20332
2000 07 31.39422 01 00 40.17 +06 16 00.1 19.4   704 – Lincoln Laboratory ETS, New Mexico MPS 20332
2000 07 31.40626 01 00 40.69 +06 16 05.8 19.3   704 – Lincoln Laboratory ETS, New Mexico MPS 20332
2000 09 01.32198 01 14 31.53 +09 03 44.2 18.0   704 – Lincoln Laboratory ETS, New Mexico MPS 20332
2000 09 01.34839 01 14 31.49 +09 03 51.0 19.0   704 – Lincoln Laboratory ETS, New Mexico MPS 20332
2000 09 01.36156 01 14 31.43 +09 03 53.2 18.7   704 – Lincoln Laboratory ETS, New Mexico MPS 20332
2000 09 01.37489 01 14 31.35 +09 03 56.4 18.5   704 – Lincoln Laboratory ETS, New Mexico MPS 20332
2000 09 04.32656 01 14 23.44 +09 12 36.6 17.2 R 699 – Lowell Observatory-LONEOS MPS 20332
2000 09 04.35227 01 14 23.24 +09 12 41.1   699 – Lowell Observatory-LONEOS MPS 20332
2000 09 04.37813 01 14 23.04 +09 12 45.6   699 – Lowell Observatory-LONEOS MPS 20332
2000 09 04.40395 01 14 22.82 +09 12 49.6   699 – Lowell Observatory-LONEOS MPS 20332
2000 09 21.49140 01 08 42.26 +09 37 37.9 17.4   608 – Haleakala-AMOS MPS 20332
2000 09 21.50180 01 08 41.87 +09 37 38.0 17.4   608 – Haleakala-AMOS MPS 20332
2000 09 21.51218 01 08 41.49 +09 37 38.0 17.4   608 – Haleakala-AMOS MPS 20332
2000 09 22.28393 01 08 15.352 +09 37 50.93 15.58 J I02 – Cerro Tololo Observatory, La Serena--2MASS MPS 80327
2000 09 23.40755 01 07 35.98 +09 37 43.4 16.3 R 699 – Lowell Observatory-LONEOS MPS 30389
2000 09 23.42291 01 07 35.38 +09 37 43.3   699 – Lowell Observatory-LONEOS MPS 30389
2000 09 23.43828 01 07 34.81 +09 37 43.4   699 – Lowell Observatory-LONEOS MPS 30389
2000 09 23.45372 01 07 34.23 +09 37 43.1   699 – Lowell Observatory-LONEOS MPS 30389
2000 09 24.40121 01 06 59.81 +09 37 35.5 17.0   704 – Lincoln Laboratory ETS, New Mexico MPS 20332
2000 09 24.41569 01 06 59.24 +09 37 35.7 17.0   704 – Lincoln Laboratory ETS, New Mexico MPS 20332
2000 09 24.43010 01 06 58.67 +09 37 35.5 17.1   704 – Lincoln Laboratory ETS, New Mexico MPS 20332
2000 09 24.44452 01 06 58.09 +09 37 35.5 17.0   704 – Lincoln Laboratory ETS, New Mexico MPS 20332
2000 09 24.45896 01 06 57.53 +09 37 35.5 17.9   704 – Lincoln Laboratory ETS, New Mexico MPS 20332
2000 09 25.96638 01 06 00.78 +09 37 06.8 16.1   106 – Crni Vrh MPS 20332
2000 09 25.98439 01 06 00.04 +09 37 06.5 16.2   106 – Crni Vrh MPS 20332
2000 09 26.00242 01 05 59.30 +09 37 05.9 16.0   106 – Crni Vrh MPS 20332
2000 09 26.02223 01 05 58.44 +09 37 05.3 16.1   106 – Crni Vrh MPS 20332
2000 09 26.03898 01 05 57.77 +09 37 04.9 16.1   106 – Crni Vrh MPS 20332
2000 09 26.05575 01 05 57.07 +09 37 04.6 16.1   106 – Crni Vrh MPS 20332
2000 09 27.25889 01 05 09.92 +09 36 31.3 16.4   704 – Lincoln Laboratory ETS, New Mexico MPS 20332
2000 09 27.27399 01 05 09.27 +09 36 30.8 17.1   704 – Lincoln Laboratory ETS, New Mexico MPS 20332
2000 09 27.28676 01 05 08.63 +09 36 27.5   718 – Tooele MPS 20332
2000 09 27.28906 01 05 08.65 +09 36 30.4 16.8   704 – Lincoln Laboratory ETS, New Mexico MPS 20332
2000 09 27.29167 01 05 08.53 +09 36 27.1   718 – Tooele MPS 20332
2000 09 27.30414 01 05 07.98 +09 36 30.5 17.1   704 – Lincoln Laboratory ETS, New Mexico MPS 20332
2000 09 27.31923 01 05 07.33 +09 36 29.3 16.7   704 – Lincoln Laboratory ETS, New Mexico MPS 20332
2000 09 27.32292 01 05 07.18 +09 36 26.7   718 – Tooele MPS 20332
2000 09 27.34028 01 05 06.46 +09 36 26.4   718 – Tooele MPS 20332
2000 10 02.37083 01 01 33.38 +09 32 10.9 16.1   704 – Lincoln Laboratory ETS, New Mexico MPS 20332
2000 10 02.38577 01 01 32.68 +09 32 09.7 16.4   704 – Lincoln Laboratory ETS, New Mexico MPS 20332
2000 10 02.40092 01 01 31.98 +09 32 08.7 16.5   704 – Lincoln Laboratory ETS, New Mexico MPS 20332
2000 10 02.41617 01 01 31.28 +09 32 07.6 16.4   704 – Lincoln Laboratory ETS, New Mexico MPS 20332
2000 10 02.43109 01 01 30.59 +09 32 06.5 16.4   704 – Lincoln Laboratory ETS, New Mexico MPS 20332
2000 10 20.01628 00 48 22.04 +09 03 31.2   914 – Underwood Observatory, Hubbardston MPS 21755
2000 10 20.09128 00 48 18.69 +09 03 22.2   914 – Underwood Observatory, Hubbardston MPS 21755
2000 10 21.01706 00 47 41.18 +09 01 43.0   914 – Underwood Observatory, Hubbardston MPS 21755
2000 10 21.04749 00 47 39.88 +09 01 39.9   914 – Underwood Observatory, Hubbardston MPS 21755
2000 10 25.22719 00 45 00.60 +08 54 40.8 16.9   704 – Lincoln Laboratory ETS, New Mexico MPS 21755
2000 10 25.24099 00 45 00.06 +08 54 39.2 16.9   704 – Lincoln Laboratory ETS, New Mexico MPS 21755
2000 10 25.25487 00 44 59.52 +08 54 37.9 17.4   704 – Lincoln Laboratory ETS, New Mexico MPS 21755
2000 10 25.26936 00 44 58.95 +08 54 36.0 17.3   704 – Lincoln Laboratory ETS, New Mexico MPS 21755
2000 10 25.28312 00 44 58.42 +08 54 34.6 17.2   704 – Lincoln Laboratory ETS, New Mexico MPS 21755
2000 10 31.21185 00 41 53.03 +08 46 35.0 16.9   704 – Lincoln Laboratory ETS, New Mexico MPS 21755
2000 10 31.22635 00 41 52.60 +08 46 33.9 17.4   704 – Lincoln Laboratory ETS, New Mexico MPS 21755
2000 10 31.24033 00 41 52.17 +08 46 32.7 17.2   704 – Lincoln Laboratory ETS, New Mexico MPS 21755
2000 10 31.25429 00 41 51.75 +08 46 32.8 17.3   704 – Lincoln Laboratory ETS, New Mexico MPS 21755
2000 10 31.26853 00 41 51.32 +08 46 31.1 17.1   704 – Lincoln Laboratory ETS, New Mexico MPS 21755
2000 11 03.14807 00 40 41.89 +08 43 49.6 17.4   704 – Lincoln Laboratory ETS, New Mexico MPS 21755
2000 11 03.16175 00 40 41.48 +08 43 49.3 18.2   704 – Lincoln Laboratory ETS, New Mexico MPS 21755
2000 11 03.17639 00 40 41.15 +08 43 48.9 18.3   704 – Lincoln Laboratory ETS, New Mexico MPS 21755
2000 11 03.19076 00 40 40.77 +08 43 47.6 17.9   704 – Lincoln Laboratory ETS, New Mexico MPS 21755
2000 11 03.20447 00 40 40.37 +08 43 47.3 18.4   704 – Lincoln Laboratory ETS, New Mexico MPS 21756
2000 11 26.16063 00 40 43.34 +09 02 43.2 18.0   704 – Lincoln Laboratory ETS, New Mexico MPS 23118
2000 11 26.17816 00 40 43.67 +09 02 47.3 18.9   704 – Lincoln Laboratory ETS, New Mexico MPS 23118
2000 11 26.19443 00 40 44.04 +09 02 49.3 18.3   704 – Lincoln Laboratory ETS, New Mexico MPS 23118
2000 11 26.21139 00 40 44.37 +09 02 51.7 18.1   704 – Lincoln Laboratory ETS, New Mexico MPS 23118
2000 11 26.23086 00 40 44.82 +09 02 55.0 19.0   704 – Lincoln Laboratory ETS, New Mexico MPS 23118
2000 11 30.15354 00 42 28.14 +09 14 15.4 16.4 V 739 – Sunflower Observatory, Olathe MPS 24293
